Location: Centreville
(38.8333°N, 77.4295°W)
Time: 07:04:03
(UTC-05:00)

JUGNU - Pass Details

Date: 31 October 2019
Orbit: 836 x 864 km, 20.0° (Epoch: 17 November)

Event Time Altitude Azimuth Distance (km) Brightness Sun altitude
Rises 20:04:56 0° 230° (SW) 3,374 ? -22.7°
Reaches altitude 10° 20:09:34 10° 197° (SSW) 2,446 ? -23.6°
Maximum altitude 20:11:15 11° 180° (S) 2,361 ? -24.0°
Enters shadow 20:12:45 10° 165° (SSE) 2,432 ? -24.3°
